Temperature
18 18 17 17 16 16 15 15 14 14 14 14 13 13 13 13 13 13 13 13 13 13 13 13 13 13 13 13 13 13 14 14 14 15 15 15 16 16 16 17 17 17 17
18 18 17 16 16 16 15 14 14 14 13 13 13 13 13 13 13 13 13 13 12 12 12 12 12 12 12 13 13 13 13 14 14 14 15 15 15 16 16 16 16 17 17
18 18 17 16 16 15 15 14 14 13 13 13 13 13 13 13 13 13 12 12 12 12 12 12 12 12 12 12 13 13 13 13 14 14 14 14 15 15 15 16 16 16 16
18 18 17 16 16 15 15 14 14 13 13 13 13 13 13 13 12 12 12 12 12 12 12 12 12 12 12 12 13 13 13 13 13 13 14 14 14 14 15 15 16 16 16
18 18 17 17 16 15 14 14 14 13 13 13 13 13 12 12 12 12 12 12 12 12 12 12 12 12 12 12 12 12 13 13 13 13 13 14 14 14 14 14 15 15 16
18 18 17 16 16 15 14 14 14 13 13 13 13 13 12 12 12 12 12 12 12 12 12 12 12 12 12 12 12 12 12 13 13 13 13 13 13 14 14 14 14 15 15
18 18 17 16 16 15 15 14 14 13 13 13 13 13 12 12 12 12 12 12 12 12 12 12 12 12 12 12 12 12 12 13 13 13 13 13 13 13 14 14 14 14 15
18 18 17 17 16 15 15 14 14 14 13 13 13 13 13 12 12 12 12 12 12 12 12 12 12 12 12 12 12 12 12 12 13 13 13 13 13 13 13 14 14 14 14
19 18 17 17 16 15 15 14 14 14 13 13 13 13 13 13 12 12 12 12 12 12 12 12 12 12 12 12 12 12 12 12 12 13 12 13 13 13 13 13 13 14 14
19 18 17 17 16 16 15 15 14 14 14 13 13 13 13 13 12 12 12 12 12 12 12 12 12 12 12 12 12 12 12 12 12 12 12 13 13 13 13 13 13 13 13
19 18 18 17 16 16 15 15 14 14 14 13 13 13 13 13 13 12 12 12 12 12 12 12 12 12 12 12 12 12 12 12 12 12 12 13 13 13 13 13 13 13 13
19 19 18 17 16 16 15 15 15 14 14 14 13 13 13 13 13 13 13 12 12 12 12 12 12 12 12 12 12 12 12 12 12 12 12 12 12 13 13 13 13 13 13
19 19 18 17 17 16 16 15 15 15 14 14 13 13 13 13 13 13 13 13 13 12 12 12 12 12 12 12 12 12 12 12 12 12 12 12 12 12 13 13 13 13 13
19 19 18 17 17 16 16 15 15 15 14 14 14 13 13 13 13 13 13 13 13 13 12 12 12 12 12 12 12 12 12 12 12 12 12 12 12 12 12 12 12 12 13
19 19 18 18 17 17 16 16 15 15 15 14 14 14 13 13 13 13 13 13 13 13 13 12 12 12 12 12 12 12 12 12 12 12 12 12 12 12 12 12 12 12 12
20 19 19 18 17 17 16 16 16 15 15 15 14 14 14 13 13 13 13 13 13 13 13 13 12 12 12 12 12 12 12 12 12 12 12 12 12 12 12 12 12 12 12
20 20 19 18 18 17 17 16 16 15 15 15 14 14 14 14 13 13 13 13 13 13 13 13 13 12 12 12 12 12 12 12 12 12 12 12 12 12 12 12 12 12 12
20 20 19 19 18 17 17 16 16 15 15 15 15 14 14 14 14 14 13 13 13 13 13 13 13 13 12 12 12 12 12 12 12 12 12 12 12 12 12 12 12 12 12
21 20 19 19 18 18 17 16 16 16 15 15 15 15 14 14 14 14 14 14 13 13 13 13 13 13 13 12 12 12 12 12 12 12 12 12 12 12 12 12 12 12 12
20 20 19 19 18 18 17 16 16 16 15 15 15 15 14 14 14 14 14 14 13 13 13 13 13 13 13 12 12 12 12 12 12 12 12 12 12 12 12 12 12 12 12
20 20 19 19 18 18 17 17 16 16 16 15 15 15 15 14 14 14 14 14 13 13 13 13 13 13 13 13 13 12 12 12 12 12 12 12 12 11 11 11 11 11 11
20 19 19 18 18 17 17 17 16 16 15 15 15 15 15 14 14 14 14 14 13 13 13 13 13 13 13 13 13 13 12 12 12 12 12 12 12 11 11 11 11 11 11
20 19 19 18 18 17 17 17 16 16 15 15 15 15 15 14 14 14 14 14 14 13 13 13 13 13 13 13 13 13 13 12 12 12 12 12 12 11 11 11 11 11 11
19 19 18 18 18 17 17 16 16 16 15 15 15 15 15 14 14 14 14 14 13 13 13 13 13 13 13 13 13 13 13 12 12 12 12 12 11 11 11 11 11 11 11
19 19 18 18 17 17 16 16 16 15 15 15 15 15 14 14 14 14 13 13 13 13 13 13 12 13 13 13 12 12 13 12 12 12 12 12 12 11 11 11 11 11 11
19 18 18 17 17 17 16 16 15 15 15 15 15 14 14 14 13 13 13 13 12 12 12 12 12 12 12 12 12 12 12 12 12 12 12 12 11 11 11 11 11 11 11
Wind_Speed
4 3 3 3 2 1 0 1 2 3 2 2 2 3 3 4 4 3 5 5 5 4 2 2 2 2 1 2 2 1 0 1 0 1 1 1 1 0 1 1 1 1 2
4 4 4 3 2 2 2 2 3 3 2 2 2 2 3 3 3 4 5 5 5 5 2 2 2 2 2 1 1 1 0 0 1 1 1 1 2 1 1 0 1 1 1
8 6 5 4 3 3 3 3 3 3 3 3 2 2 2 3 4 4 5 5 6 5 3 2 2 1 1 1 2 2 2 1 0 0 2 2 1 1 1 1 0 1 1
7 6 6 5 5 5 3 3 3 3 3 2 2 2 2 2 3 3 4 6 5 4 3 2 2 1 1 1 2 1 1 2 1 0 0 1 2 1 1 2 1 0 1
8 8 8 7 5 4 3 3 3 3 3 2 2 2 2 2 3 4 5 5 5 4 4 3 2 2 1 1 1 1 1 1 2 1 1 1 1 1 1 1 1 1 1
8 7 5 4 4 3 3 2 2 3 3 2 2 2 3 4 4 5 5 5 4 4 5 4 3 2 1 1 1 1 1 2 2 2 2 2 1 1 2 1 1 1 1
8 7 7 6 5 5 4 3 3 4 3 3 3 3 3 3 3 4 4 4 4 4 5 4 3 2 2 2 1 0 1 1 2 2 2 2 2 2 2 2 1 1 1
7 8 8 8 6 6 5 4 4 4 4 3 4 3 3 2 3 3 3 4 3 4 5 5 4 3 2 2 1 0 1 1 2 2 2 2 2 2 2 2 2 1 1
8 8 7 7 7 6 6 5 4 4 4 3 3 3 3 3 3 3 3 3 4 4 4 4 4 3 3 2 1 0 0 0 1 1 2 1 1 2 2 2 2 3 1
7 7 7 7 7 6 5 4 4 4 4 3 3 2 3 3 3 3 4 4 4 4 5 5 4 3 3 3 1 0 0 0 0 1 1 1 1 1 1 2 2 2 3
9 8 7 7 6 5 4 4 4 3 3 3 3 3 3 3 3 3 4 4 4 4 4 4 4 3 3 2 2 1 1 0 0 0 1 1 1 1 1 1 2 2 2
7 7 6 5 5 5 5 5 4 4 4 3 2 3 3 3 3 4 4 4 4 4 4 4 3 3 3 2 2 2 1 1 0 1 0 0 0 0 0 1 1 1 2
7 5 5 5 6 6 5 5 4 4 3 2 2 3 3 3 4 4 4 4 4 5 4 4 4 4 3 3 2 1 1 0 0 1 1 1 1 1 1 1 1 1 1
7 7 6 6 6 6 5 5 5 4 3 2 2 2 3 3 4 4 4 4 4 4 4 4 4 4 4 3 2 1 1 1 1 1 1 1 2 2 2 2 2 2 1
7 8 8 7 6 6 5 5 4 3 3 2 2 3 3 3 3 3 4 4 4 4 4 4 4 5 4 3 2 1 1 1 1 2 1 1 1 2 2 2 2 3 2
9 9 9 8 8 7 7 6 5 4 3 3 3 3 2 2 3 3 3 3 4 4 4 4 4 5 4 5 4 1 0 1 1 2 2 2 2 2 1 1 2 4 4
10 10 10 9 9 8 8 7 6 4 4 3 3 3 2 2 3 3 3 3 4 3 4 4 4 5 6 6 5 3 1 1 1 1 2 2 2 3 2 3 3 3 4
9 9 8 8 7 7 6 6 4 4 4 4 3 3 3 3 3 2 3 4 3 3 3 3 4 4 6 7 4 3 2 1 1 1 1 2 3 3 2 1 2 3 3
9 8 8 7 7 7 7 6 5 4 4 4 4 4 3 3 3 3 4 3 2 3 3 3 3 4 6 7 5 3 1 1 2 2 1 2 2 4 3 1 2 3 4
6 6 6 6 6 6 7 7 6 5 5 6 5 4 4 4 4 4 4 2 2 3 4 4 3 3 5 7 5 3 0 1 2 3 3 3 3 4 3 1 2 3 4
6 7 7 6 6 6 8 7 6 6 7 5 4 3 3 4 4 4 3 2 3 3 3 4 4 4 5 6 6 3 1 2 2 2 3 3 5 5 4 3 2 4 4
7 8 7 5 4 6 8 7 6 6 4 3 3 3 3 3 2 3 3 2 2 3 4 4 5 4 4 5 6 5 3 3 2 3 3 3 5 5 5 3 4 5 3
7 7 8 6 4 5 7 7 5 4 4 3 2 2 2 2 2 2 3 2 2 2 3 3 4 5 4 4 6 6 5 4 3 3 4 4 5 5 4 4 5 3 1
7 7 8 7 5 4 5 5 3 4 5 3 2 1 1 2 2 1 1 2 2 2 3 3 4 5 5 4 4 3 3 3 2 2 3 4 4 3 3 4 3 2 2
6 7 8 8 6 5 4 3 3 5 5 3 2 1 1 1 1 1 1 2 2 2 2 3 3 3 5 5 5 3 3 2 1 0 2 2 3 4 4 4 4 3 2
7 7 7 7 6 6 4 3 3 5 5 3 2 1 1 1 1 1 2 2 1 3 4 3 2 3 5 7 7 6 4 2 1 3 2 2 3 3 4 4 4 3 3
Wind_Direction
217 187 176 164 138 136 286 303 319 322 344 346 335 329 322 319 325 322 329 331 328 319 292 289 297 292 271 271 283 271 269 288 242 77 5 336 311 246 229 199 179 198 197
194 189 186 178 184 216 244 274 292 306 312 299 285 271 282 294 294 312 331 340 337 331 316 293 287 285 276 284 271 221 208 256 145 121 104 356 354 343 320 199 189 215 207
196 198 195 205 212 233 239 255 273 293 308 322 333 339 343 335 340 340 338 333 334 333 326 313 298 293 272 265 252 215 179 193 281 124 142 142 216 316 336 321 195 175 196
191 195 199 211 222 235 243 254 271 291 308 335 354 352 342 324 300 302 308 319 332 335 334 326 321 310 293 277 262 214 199 162 171 3 47 164 175 147 334 340 335 247 214
193 199 205 214 226 232 236 249 274 293 310 327 338 342 322 297 303 312 326 333 333 335 337 332 329 330 315 295 286 263 206 180 176 168 139 74 65 185 175 245 295 293 246
198 206 212 212 231 235 242 252 274 288 307 323 330 323 313 317 327 330 336 335 331 332 340 335 334 328 318 295 281 248 207 206 183 174 170 165 167 202 181 200 229 250 256
192 201 207 212 225 234 238 245 261 280 298 312 313 307 303 307 306 311 320 325 328 325 329 335 329 321 310 296 283 245 233 201 179 182 189 185 196 198 176 170 190 235 287
199 207 212 214 223 234 235 237 250 269 290 298 302 308 311 303 297 300 301 307 305 304 316 327 327 327 323 324 333 303 251 199 184 185 183 188 206 199 188 178 163 157 296
207 213 217 217 222 231 232 228 239 261 277 284 298 308 314 311 307 308 308 309 309 314 325 335 340 341 341 343 356 344 263 186 186 182 180 190 216 202 200 190 174 166 190
213 217 218 219 222 226 233 231 232 245 261 275 287 300 306 311 313 320 324 324 323 328 334 340 341 345 350 353 7 341 314 137 185 176 170 183 208 202 190 189 186 181 179
211 214 218 219 218 222 225 231 239 248 263 269 281 305 311 319 328 328 321 324 328 332 335 334 339 342 342 343 0 349 1 39 354 82 152 210 199 180 196 181 180 190 180
209 208 209 205 208 219 224 229 237 241 246 254 275 296 312 324 330 326 324 331 331 331 330 336 342 338 336 334 332 325 341 325 292 284 134 277 191 209 230 190 194 205 200
203 198 197 202 213 221 226 230 234 238 244 243 267 299 312 319 316 316 323 331 335 337 340 347 346 336 331 326 309 293 317 315 265 255 232 247 198 227 239 211 209 219 221
200 197 204 212 217 222 225 228 235 233 230 223 244 280 292 301 305 314 325 331 336 340 341 343 341 338 333 329 323 321 336 351 346 315 250 234 212 220 222 219 214 204 201
204 204 208 212 213 219 224 223 229 230 211 207 238 265 286 305 314 322 327 333 339 340 337 344 345 345 342 342 343 339 356 355 356 346 325 294 253 238 217 208 203 189 191
211 210 209 207 209 211 214 213 219 218 189 203 239 265 293 309 311 313 320 331 333 336 345 346 343 345 344 348 356 7 37 7 6 332 328 328 314 305 303 276 236 206 200
209 205 205 205 206 205 201 204 210 193 185 211 239 257 271 289 297 310 326 322 318 327 334 333 340 334 329 347 0 15 46 41 340 309 315 322 324 317 297 294 290 267 242
204 203 200 201 204 196 191 191 178 176 192 217 240 251 255 271 291 309 309 305 305 308 309 315 323 324 329 345 351 5 29 29 342 305 288 296 313 317 307 294 299 292 275
198 197 192 190 184 183 179 164 168 177 194 222 238 241 235 251 271 282 286 285 296 300 299 299 311 318 318 335 339 345 15 352 327 313 307 297 299 314 329 329 299 302 299
183 178 168 160 168 177 159 159 174 182 211 227 235 237 228 234 250 261 268 270 275 286 299 305 301 298 301 320 330 333 65 319 317 326 323 316 310 305 312 287 274 288 292
167 157 151 158 174 162 154 165 176 205 223 225 228 232 231 236 245 259 263 270 285 304 310 308 306 298 293 306 318 316 195 233 280 303 307 303 316 319 310 295 263 270 281
151 149 149 155 152 151 157 168 198 222 212 197 212 236 246 251 250 251 272 277 285 303 309 314 316 309 301 298 304 306 279 227 223 264 273 283 305 316 318 309 294 293 300
156 151 149 144 140 153 159 173 210 202 172 170 205 241 263 266 265 251 269 283 279 282 296 302 305 308 312 310 307 302 297 270 232 257 272 295 317 328 325 317 319 322 309
160 152 145 147 157 165 170 188 190 157 150 163 200 232 261 288 294 270 256 258 271 273 284 291 293 300 310 313 316 309 302 293 274 288 315 333 344 346 332 332 334 326 275
160 156 158 161 168 164 171 181 159 147 150 163 183 211 240 270 291 293 251 239 255 224 249 271 270 287 302 306 310 306 298 276 256 15 19 15 5 358 352 345 335 329 327
159 157 161 162 163 157 161 165 159 155 154 159 181 194 206 246 279 311 338 331 295 7 13 347 310 278 285 311 328 330 332 344 87 92 33 2 356 344 335 333 331 328 324
Height
1518 1520 1521 1521 1521 1521 1520 1518 1517 1515 1513 1511 1509 1507 1506 1504 1502 1500 1498 1497 1495 1493 1492 1491 1490 1490 1489 1489 1489 1490 1491 1491 1492 1493 1494 1495 1497 1499 1501 1503 1505 1507 1509
1516 1518 1519 1520 1520 1520 1519 1518 1516 1515 1513 1511 1509 1507 1505 1503 1501 1499 1497 1495 1494 1492 1491 1489 1489 1488 1488 1488 1488 1488 1489 1490 1490 1491 1492 1493 1496 1496 1498 1500 1502 1504 1506
1514 1516 1517 1518 1519 1519 1518 1517 1516 1514 1512 1510 1508 1506 1504 1502 1500 1498 1496 1495 1493 1491 1490 1488 1487 1486 1486 1486 1486 1486 1487 1488 1489 1490 1491 1492 1493 1494 1496 1497 1499 1501 1504
1513 1515 1516 1517 1518 1518 1517 1516 1515 1513 1512 1510 1508 1506 1504 1501 1499 1497 1495 1494 1492 1490 1489 1487 1486 1485 1484 1484 1484 1484 1485 1486 1487 1488 1489 1491 1492 1493 1494 1496 1497 1499 1501
1511 1513 1515 1516 1517 1517 1516 1515 1514 1513 1511 1510 1508 1505 1503 1501 1499 1497 1495 1493 1491 1489 1488 1486 1485 1484 1483 1483 1482 1483 1484 1485 1486 1487 1488 1489 1490 1492 1493 1493 1495 1497 1499
1510 1512 1514 1515 1515 1515 1515 1514 1513 1512 1511 1509 1507 1505 1503 1501 1499 1497 1495 1492 1490 1489 1487 1485 1484 1483 1482 1481 1481 1482 1482 1483 1484 1485 1486 1488 1489 1490 1491 1492 1492 1494 1496
1508 1510 1512 1513 1514 1514 1514 1513 1512 1511 1510 1508 1507 1505 1503 1501 1499 1496 1494 1492 1490 1488 1486 1484 1483 1482 1481 1480 1480 1480 1481 1482 1482 1483 1485 1486 1487 1488 1489 1490 1491 1492 1493
1506 1508 1510 1511 1512 1513 1513 1512 1511 1510 1509 1508 1506 1505 1503 1501 1499 1497 1494 1492 1490 1488 1486 1484 1482 1481 1480 1479 1479 1479 1479 1480 1480 1481 1483 1484 1485 1486 1487 1489 1490 1490 1492
1504 1506 1508 1510 1511 1511 1511 1511 1510 1510 1508 1507 1506 1504 1502 1501 1499 1497 1495 1492 1490 1488 1486 1484 1482 1480 1479 1478 1478 1478 1478 1478 1479 1480 1481 1482 1483 1485 1485 1487 1488 1490 1490
1502 1504 1506 1507 1509 1510 1510 1510 1510 1509 1508 1506 1505 1504 1502 1501 1499 1497 1495 1492 1490 1488 1486 1484 1482 1480 1479 1478 1477 1477 1477 1477 1478 1478 1479 1480 1481 1482 1484 1485 1486 1487 1489
1499 1501 1504 1505 1507 1508 1508 1509 1508 1508 1507 1506 1505 1503 1502 1500 1499 1497 1495 1492 1490 1488 1486 1484 1482 1480 1479 1478 1477 1476 1476 1476 1476 1477 1478 1479 1480 1481 1482 1483 1484 1485 1486
1497 1499 1501 1503 1505 1506 1507 1507 1507 1506 1506 1505 1504 1503 1501 1500 1498 1496 1494 1492 1490 1488 1486 1484 1482 1480 1479 1477 1476 1476 1475 1475 1475 1476 1476 1477 1478 1479 1480 1481 1482 1483 1484
1495 1497 1499 1501 1502 1504 1505 1505 1505 1505 1505 1504 1503 1502 1501 1499 1498 1496 1494 1492 1490 1488 1486 1484 1482 1480 1479 1477 1476 1475 1475 1474 1474 1475 1475 1476 1477 1478 1479 1480 1480 1481 1482
1492 1494 1496 1498 1500 1502 1503 1503 1504 1504 1503 1503 1502 1501 1500 1499 1497 1496 1494 1492 1490 1488 1486 1484 1482 1481 1479 1477 1476 1475 1475 1474 1474 1474 1474 1475 1475 1476 1477 1478 1479 1479 1480
1489 1491 1494 1496 1498 1499 1500 1501 1502 1502 1502 1502 1501 1500 1500 1498 1497 1495 1494 1492 1490 1488 1487 1485 1483 1481 1479 1477 1476 1475 1475 1474 1474 1474 1474 1474 1474 1475 1476 1476 1477 1477 1477
1486 1488 1491 1493 1495 1496 1498 1499 1500 1501 1501 1500 1500 1500 1499 1498 1496 1495 1494 1492 1490 1489 1487 1485 1483 1481 1479 1478 1477 1476 1475 1475 1474 1474 1473 1473 1473 1474 1474 1474 1475 1475 1475
1483 1485 1488 1490 1492 1494 1496 1497 1498 1499 1499 1499 1499 1498 1498 1497 1496 1494 1493 1492 1490 1489 1487 1485 1483 1482 1480 1478 1477 1476 1476 1475 1474 1473 1473 1472 1472 1472 1472 1472 1473 1473 1473
1480 1483 1485 1487 1489 1491 1493 1495 1496 1497 1497 1497 1497 1497 1497 1496 1495 1494 1493 1491 1490 1488 1487 1485 1484 1482 1480 1479 1478 1477 1476 1475 1474 1474 1473 1472 1471 1471 1471 1470 1470 1470 1470
1477 1480 1483 1485 1487 1489 1491 1492 1494 1495 1495 1495 1496 1496 1495 1495 1494 1493 1492 1491 1489 1488 1487 1485 1484 1482 1481 1479 1478 1477 1476 1475 1474 1473 1472 1472 1471 1470 1469 1469 1468 1468 1468
1475 1478 1480 1482 1485 1487 1488 1490 1491 1492 1493 1494 1494 1494 1494 1493 1492 1492 1491 1490 1489 1488 1486 1485 1483 1482 1481 1479 1478 1477 1476 1475 1474 1473 1472 1471 1470 1469 1468 1468 1467 1466 1466
1473 1475 1478 1480 1482 1484 1486 1487 1489 1490 1491 1492 1492 1492 1492 1491 1491 1490 1490 1489 1488 1486 1485 1484 1483 1481 1480 1479 1478 1476 1475 1474 1473 1472 1471 1470 1469 1468 1467 1466 1465 1465 1464
1471 1473 1475 1478 1480 1482 1484 1485 1486 1488 1489 1489 1490 1490 1490 1489 1489 1488 1488 1487 1486 1485 1484 1482 1481 1480 1479 1478 1476 1475 1474 1473 1472 1471 1470 1469 1468 1467 1466 1465 1464 1463 1462
1469 1471 1473 1475 1478 1479 1481 1483 1484 1485 1486 1487 1487 1487 1487 1487 1487 1486 1486 1485 1484 1483 1481 1480 1479 1478 1478 1476 1475 1474 1473 1472 1471 1470 1469 1468 1467 1466 1465 1464 1463 1462 1461
1467 1469 1471 1473 1475 1477 1479 1480 1482 1483 1484 1484 1484 1485 1485 1485 1484 1483 1483 1482 1481 1480 1479 1478 1477 1476 1475 1474 1473 1472 1471 1470 1469 1468 1467 1466 1465 1464 1463 1462 1461 1460 1459
1464 1466 1468 1470 1472 1474 1476 1478 1479 1480 1481 1481 1482 1482 1482 1482 1481 1481 1480 1479 1478 1477 1476 1475 1474 1473 1472 1472 1471 1469 1468 1467 1467 1466 1465 1464 1463 1462 1461 1460 1459 1458 1457
1461 1463 1465 1468 1470 1471 1473 1475 1476 1477 1478 1478 1479 1479 1479 1479 1479 1478 1478 1477 1476 1475 1474 1473 1472 1471 1470 1469 1468 1467 1466 1465 1464 1463 1462 1461 1460 1459 1458 1457 1456 1455 1454